{"data":{"norad_id":57764,"epoch":"2026-05-25T03:29:24.188640Z","epoch_age_seconds":62068,"freshness":"FRESH","line1":"1 57764U 23133H   26145.14541885  .00000096  00000+0  73921-4 0  9995","line2":"2 57764  81.0014  29.1133 0007402  65.2144 294.9782 13.85726826137863","mean_motion":13.85726826,"eccentricity":0.0007402,"inclination_deg":81.0014,"raan_deg":29.1133,"arg_perigee_deg":65.2144,"mean_anomaly_deg":294.9782,"bstar":7.3921e-5,"rev_number":13786,"period_min":103.91658536024,"perigee_km":938.22481667213,"apogee_km":949.0639818556,"semimajor_km":7321.7813992639,"source":"CELESTRAK","updated_at":"2026-05-25T13:38:00.237158Z"}}